Moab, UT

9:44 PM MST on November 18, 2019 (GMT -0700)
Canyonlands

Weather History for KCNY - May, 2019

Change the Weather History Date:

Friday, May 24, 2019

  Actual Average Record
Temperature  
Mean Temperature 55 °F 65 °F  
Max Temperature 66 °F 82 °F 97 °F (1988)
Min Temperature 43 °F 49 °F 35 °F (1932)
Degree Days  
Heating Degree Days 10 3  
Month to date heating degree days 205 121  
Since 1 July heating degree days 5775 5546  
Cooling Degree Days 0 3  
Month to date cooling degree days 12 33  
Year to date cooling degree days 14 36  
Growing Degree Days 4 (Base 50)    
Moisture  
Dew Point 37 °F    
Average Humidity 57    
Maximum Humidity 86    
Minimum Humidity 28    
Precipitation  
Precipitation 0.00 in 0.01 in 1.00 in (1954)
Month to date precipitation 0.94 0.47  
Year to date precipitation 5.93 3.09  
Sea Level Pressure  
Sea Level Pressure 29.92 in    
Wind  
Wind Speed 7 mph (SW)    
Max Wind Speed 16 mph    
Max Gust Speed 22 mph    
Visibility 10 miles    
Events      
T = Trace of Precipitation, MM = Missing Value Source: NWS Daily Summary

Daily Weather History Graph

Daily Weather History Graph

Search for Another Location

Airport or City:

Astronomy

May. 24, 2019 Rise Set
Actual Time 6:00 AM MDT 8:31 PM MDT
Civil Twilight 5:29 AM MDT 9:02 PM MDT
Nautical Twilight 4:51 AM MDT 9:40 PM MDT
Astronomical Twilight 4:09 AM MDT 10:23 PM MDT
Moon 12:59 AM MDT (5/24) 11:03 AM MDT (5/24)
Length of Visible Light 15h 33m
Length of Day
14h 31m
Waning Gibbous, 68% of the Moon is Illuminated
May 24
Waning Gibbous
May 26
Last Quarter
Jun 3
New
Jun 10
First Quarter
Jun 17
Full

Hourly Weather History & Observations

Time (MDT) Temp. Windchill Dew Point Humidity Pressure Visibility Wind Dir Wind Speed Gust Speed Precip Events Conditions
12:53 AM 48.0 °F - 37.0 °F 66% 29.93 in 10.0 mi SSW 11.5 mph 21.9 mph N/A   Overcast
1:53 AM 48.0 °F - 37.0 °F 66% 29.95 in 10.0 mi SW 6.9 mph - N/A   Mostly Cloudy
2:53 AM 48.9 °F - 37.0 °F 64% 29.94 in 10.0 mi South 13.8 mph - N/A   Clear
3:53 AM 44.1 °F 42.5 °F 37.0 °F 76% 29.97 in 10.0 mi NE 3.5 mph - N/A   Clear
4:53 AM 44.1 °F 41.5 °F 37.0 °F 76% 29.96 in 10.0 mi NE 4.6 mph - N/A   Mostly Cloudy
5:53 AM 44.1 °F - 37.0 °F 76% 29.97 in 10.0 mi Calm Calm - N/A   Mostly Cloudy
6:53 AM 43.0 °F - 37.9 °F 82% 29.97 in 10.0 mi Calm Calm - N/A   Clear
7:53 AM 50.0 °F - 37.9 °F 63% 29.96 in 10.0 mi ENE 3.5 mph - N/A   Clear
8:53 AM 53.1 °F - 37.9 °F 57% 29.96 in 10.0 mi Variable 5.8 mph - N/A   Clear
9:53 AM 55.9 °F - 37.9 °F 51% 29.96 in 10.0 mi SW 10.4 mph - N/A   Scattered Clouds
10:53 AM 57.0 °F - 37.9 °F 49% 29.95 in 10.0 mi SW 11.5 mph - N/A   Clear
11:53 AM 60.1 °F - 37.0 °F 42% 29.94 in 10.0 mi South 11.5 mph - N/A   Clear
12:53 PM 62.1 °F - 34.0 °F 35% 29.92 in 10.0 mi SSW 6.9 mph - N/A   Partly Cloudy
1:53 PM 62.1 °F - 32.0 °F 32% 29.91 in 10.0 mi Variable 5.8 mph 18.4 mph N/A   Mostly Cloudy
2:53 PM 64.0 °F - 33.1 °F 31% 29.88 in 10.0 mi WSW 8.1 mph - N/A   Mostly Cloudy
3:53 PM 64.0 °F - 33.1 °F 31% 29.88 in 10.0 mi South 10.4 mph 17.3 mph N/A   Mostly Cloudy
4:53 PM 64.9 °F - 30.9 °F 28% 29.86 in 10.0 mi SW 10.4 mph - N/A   Overcast
5:53 PM 64.9 °F - 35.1 °F 33% 29.86 in 10.0 mi West 8.1 mph 17.3 mph N/A   Mostly Cloudy
6:53 PM 64.9 °F - 32.0 °F 29% 29.86 in 10.0 mi SW 10.4 mph - N/A   Scattered Clouds
7:53 PM 63.0 °F - 32.0 °F 31% 29.85 in 10.0 mi SW 9.2 mph - N/A   Overcast
8:53 PM 57.9 °F - 42.1 °F 56% 29.86 in 10.0 mi NW 10.4 mph - N/A   Scattered Clouds
9:53 PM 54.0 °F - 46.0 °F 75% 29.88 in 10.0 mi Calm Calm - N/A   Mostly Cloudy
10:53 PM 52.0 °F - 45.0 °F 77% 29.89 in 10.0 mi WNW 6.9 mph - N/A   Clear
11:53 PM 50.0 °F - 46.0 °F 86% 29.88 in 10.0 mi Calm Calm - N/A   Clear